owner,sensor,date,latitude,longitude,vertical_datum,sea_water_practical_salinity,qcFlag 
DISL,ioos:station:DISL:MHPA:1,2014-05-01T00:00:00Z,30.6671,-87.9365,1.39,0.05,1111122 
DISL,ioos:station:DISL:MHPA:1,2014-05-01T00:30:00Z,30.6671,-87.9365,1.367,0.05,1111122 
DISL,ioos:station:DISL:MHPA:1,2014-05-01T01:00:00Z,30.6671,-87.9365,1.322,0.05,1111122 
DISL,ioos:station:DISL:MHPA:1,2014-05-01T01:30:00Z,30.6671,-87.9365,1.287,0.05,1111122 
DISL,ioos:station:DISL:MHPA:1,2014-05-01T02:00:00Z,30.6671,-87.9365,1.257,0.05,1111122 
DISL,ioos:station:DISL:MHPA:1,2014-05-01T02:30:00Z,30.6671,-87.9365,1.229,0.05,1111122 
DISL,ioos:station:DISL:MHPA:1,2014-05-01T03:00:00Z,30.6671,-87.9365,1.224,0.05,1111122 
DISL,ioos:station:DISL:MHPA:1,2014-05-01T03:30:00Z,30.6671,-87.9365,1.197,0.05,1111122 
DISL,ioos:station:DISL:MHPA:1,2014-05-01T04:00:00Z,30.6671,-87.9365,1.152,0.05,1111122 
DISL,ioos:station:DISL:MHPA:1,2014-05-01T04:30:00Z,30.6671,-87.9365,1.115,0.05,1111122 
DISL,ioos:station:DISL:MHPA:1,2014-05-01T05:00:00Z,30.6671,-87.9365,1.096,0.05,1111122 
DISL,ioos:station:DISL:MHPA:1,2014-05-01T05:30:00Z,30.6671,-87.9365,1.083,0.05,1111122 
DISL,ioos:station:DISL:MHPA:1,2014-05-01T06:00:00Z,30.6671,-87.9365,1.083,0.05,1111122 
DISL,ioos:station:DISL:MHPA:1,2014-05-01T06:30:00Z,30.6671,-87.9365,1.08,0.05,1111122 
DISL,ioos:station:DISL:MHPA:1,2014-05-01T07:00:00Z,30.6671,-87.9365,1.07,0.05,1111122 
DISL,ioos:station:DISL:MHPA:1,2014-05-01T07:30:00Z,30.6671,-87.9365,1.061,0.05,1111122 
DISL,ioos:station:DISL:MHPA:1,2014-05-01T08:00:00Z,30.6671,-87.9365,1.052,0.05,1111122 
DISL,ioos:station:DISL:MHPA:1,2014-05-01T08:30:00Z,30.6671,-87.9365,1.032,0.05,1111122 
DISL,ioos:station:DISL:MHPA:1,2014-05-01T09:00:00Z,30.6671,-87.9365,1.013,0.05,1111122 
DISL,ioos:station:DISL:MHPA:1,2014-05-01T09:30:00Z,30.6671,-87.9365,0.991,0.05,1111122 
DISL,ioos:station:DISL:MHPA:1,2014-05-01T10:00:00Z,30.6671,-87.9365,0.975,0.05,1111122 
DISL,ioos:station:DISL:MHPA:1,2014-05-01T10:30:00Z,30.6671,-87.9365,0.977,0.05,1111122 
DISL,ioos:station:DISL:MHPA:1,2014-05-01T11:00:00Z,30.6671,-87.9365,0.981,0.05,1111122 
DISL,ioos:station:DISL:MHPA:1,2014-05-01T11:30:00Z,30.6671,-87.9365,0.979,0.05,1111122 
DISL,ioos:station:DISL:MHPA:1,2014-05-01T12:00:00Z,30.6671,-87.9365,0.983,0.05,1111122 
DISL,ioos:station:DISL:MHPA:1,2014-05-01T12:30:00Z,30.6671,-87.9365,0.99,0.05,1111122 
DISL,ioos:station:DISL:MHPA:1,2014-05-01T13:00:00Z,30.6671,-87.9365,0.999,0.05,1111122 
DISL,ioos:station:DISL:MHPA:1,2014-05-01T13:30:00Z,30.6671,-87.9365,1.002,0.05,1111122 
DISL,ioos:station:DISL:MHPA:1,2014-05-01T14:00:00Z,30.6671,-87.9365,1.023,0.05,1111122 
DISL,ioos:station:DISL:MHPA:1,2014-05-01T14:30:00Z,30.6671,-87.9365,1.073,0.05,1111122 
DISL,ioos:station:DISL:MHPA:1,2014-05-01T15:00:00Z,30.6671,-87.9365,1.122,0.05,1111122 
DISL,ioos:station:DISL:MHPA:1,2014-05-01T15:30:00Z,30.6671,-87.9365,1.161,0.05,1111122 
DISL,ioos:station:DISL:MHPA:1,2014-05-01T16:00:00Z,30.6671,-87.9365,1.206,0.05,1111122 
DISL,ioos:station:DISL:MHPA:1,2014-05-01T16:30:00Z,30.6671,-87.9365,1.289,0.05,1111122 
DISL,ioos:station:DISL:MHPA:1,2014-05-01T17:00:00Z,30.6671,-87.9365,1.362,0.05,1111122 
DISL,ioos:station:DISL:MHPA:1,2014-05-01T17:30:00Z,30.6671,-87.9365,1.418,0.05,1111122 
DISL,ioos:station:DISL:MHPA:1,2014-05-01T18:00:00Z,30.6671,-87.9365,1.445,0.05,1111122 
DISL,ioos:station:DISL:MHPA:1,2014-05-01T18:30:00Z,30.6671,-87.9365,1.465,0.05,1111122 
DISL,ioos:station:DISL:MHPA:1,2014-05-01T19:00:00Z,30.6671,-87.9365,1.48,0.05,1111122 
DISL,ioos:station:DISL:MHPA:1,2014-05-01T19:30:00Z,30.6671,-87.9365,1.488,0.05,1111122 
DISL,ioos:station:DISL:MHPA:1,2014-05-01T20:00:00Z,30.6671,-87.9365,1.474,0.05,1111122 
DISL,ioos:station:DISL:MHPA:1,2014-05-01T20:30:00Z,30.6671,-87.9365,1.448,0.05,1111122 
DISL,ioos:station:DISL:MHPA:1,2014-05-01T21:00:00Z,30.6671,-87.9365,1.424,0.05,1111122 
DISL,ioos:station:DISL:MHPA:1,2014-05-01T21:30:00Z,30.6671,-87.9365,1.411,0.05,1111122 
DISL,ioos:station:DISL:MHPA:1,2014-05-01T22:00:00Z,30.6671,-87.9365,1.388,0.05,1111122 
DISL,ioos:station:DISL:MHPA:1,2014-05-01T22:30:00Z,30.6671,-87.9365,1.362,0.05,1111122 
DISL,ioos:station:DISL:MHPA:1,2014-05-01T23:00:00Z,30.6671,-87.9365,1.329,0.05,1111122 
DISL,ioos:station:DISL:MHPA:1,2014-05-01T23:30:00Z,30.6671,-87.9365,1.293,0.05,1111122 
DISL,ioos:station:DISL:MHPA:1,2014-05-02T00:00:00Z,30.6671,-87.9365,1.258,0.05,1111122 
DISL,ioos:station:DISL:MHPA:1,2014-05-02T00:30:00Z,30.6671,-87.9365,1.228,0.05,1111122 
DISL,ioos:station:DISL:MHPA:1,2014-05-02T01:00:00Z,30.6671,-87.9365,1.2,0.05,1111122 
DISL,ioos:station:DISL:MHPA:1,2014-05-02T01:30:00Z,30.6671,-87.9365,1.175,0.05,1111122 
DISL,ioos:station:DISL:MHPA:1,2014-05-02T02:00:00Z,30.6671,-87.9365,1.143,0.05,1111122 
DISL,ioos:station:DISL:MHPA:1,2014-05-02T02:30:00Z,30.6671,-87.9365,1.119,0.05,1111122 
DISL,ioos:station:DISL:MHPA:1,2014-05-02T03:00:00Z,30.6671,-87.9365,1.097,0.05,1111122 
DISL,ioos:station:DISL:MHPA:1,2014-05-02T03:30:00Z,30.6671,-87.9365,1.079,0.05,1111122 
DISL,ioos:station:DISL:MHPA:1,2014-05-02T04:00:00Z,30.6671,-87.9365,1.064,0.05,1111122 
DISL,ioos:station:DISL:MHPA:1,2014-05-02T04:30:00Z,30.6671,-87.9365,1.044,0.05,1111122 
DISL,ioos:station:DISL:MHPA:1,2014-05-02T05:00:00Z,30.6671,-87.9365,1.03,0.05,1111122 
DISL,ioos:station:DISL:MHPA:1,2014-05-02T05:30:00Z,30.6671,-87.9365,1.021,0.05,1111122 
DISL,ioos:station:DISL:MHPA:1,2014-05-02T06:00:00Z,30.6671,-87.9365,1.014,0.05,1111122 
DISL,ioos:station:DISL:MHPA:1,2014-05-02T06:30:00Z,30.6671,-87.9365,1.012,0.05,1111122 
DISL,ioos:station:DISL:MHPA:1,2014-05-02T07:00:00Z,30.6671,-87.9365,1.006,0.05,1111122 
DISL,ioos:station:DISL:MHPA:1,2014-05-02T07:30:00Z,30.6671,-87.9365,0.999,0.05,1111122 
DISL,ioos:station:DISL:MHPA:1,2014-05-02T08:00:00Z,30.6671,-87.9365,1.008,0.05,1111122 
DISL,ioos:station:DISL:MHPA:1,2014-05-02T08:30:00Z,30.6671,-87.9365,1.01,0.05,1111122 
DISL,ioos:station:DISL:MHPA:1,2014-05-02T09:00:00Z,30.6671,-87.9365,1.0,0.05,1111122 
DISL,ioos:station:DISL:MHPA:1,2014-05-02T09:30:00Z,30.6671,-87.9365,1.021,0.05,1111122 
DISL,ioos:station:DISL:MHPA:1,2014-05-02T10:00:00Z,30.6671,-87.9365,1.083,0.05,1111122 
DISL,ioos:station:DISL:MHPA:1,2014-05-02T10:30:00Z,30.6671,-87.9365,1.119,0.05,1111122 
DISL,ioos:station:DISL:MHPA:1,2014-05-02T11:00:00Z,30.6671,-87.9365,1.131,0.05,1111122 
DISL,ioos:station:DISL:MHPA:1,2014-05-02T11:30:00Z,30.6671,-87.9365,1.146,0.05,1111122 
DISL,ioos:station:DISL:MHPA:1,2014-05-02T12:00:00Z,30.6671,-87.9365,1.185,0.05,1111122 
DISL,ioos:station:DISL:MHPA:1,2014-05-02T12:30:00Z,30.6671,-87.9365,1.202,0.05,1111122 
DISL,ioos:station:DISL:MHPA:1,2014-05-02T13:00:00Z,30.6671,-87.9365,1.228,0.05,1111122 
DISL,ioos:station:DISL:MHPA:1,2014-05-02T13:30:00Z,30.6671,-87.9365,1.258,0.05,1111122 
DISL,ioos:station:DISL:MHPA:1,2014-05-02T14:00:00Z,30.6671,-87.9365,1.298,0.05,1111122 
DISL,ioos:station:DISL:MHPA:1,2014-05-02T14:30:00Z,30.6671,-87.9365,1.346,0.05,1111122 
DISL,ioos:station:DISL:MHPA:1,2014-05-02T15:00:00Z,30.6671,-87.9365,1.376,0.05,1111122 
DISL,ioos:station:DISL:MHPA:1,2014-05-02T15:30:00Z,30.6671,-87.9365,1.417,0.05,1111122 
DISL,ioos:station:DISL:MHPA:1,2014-05-02T16:00:00Z,30.6671,-87.9365,1.45,0.05,1111122 
DISL,ioos:station:DISL:MHPA:1,2014-05-02T16:30:00Z,30.6671,-87.9365,1.461,0.05,1111122 
DISL,ioos:station:DISL:MHPA:1,2014-05-02T17:00:00Z,30.6671,-87.9365,1.491,0.05,1111122 
DISL,ioos:station:DISL:MHPA:1,2014-05-02T17:30:00Z,30.6671,-87.9365,1.521,0.05,1111122 
DISL,ioos:station:DISL:MHPA:1,2014-05-02T18:00:00Z,30.6671,-87.9365,1.537,0.05,1111122 
DISL,ioos:station:DISL:MHPA:1,2014-05-02T18:30:00Z,30.6671,-87.9365,1.527,0.05,1111122 
DISL,ioos:station:DISL:MHPA:1,2014-05-02T19:00:00Z,30.6671,-87.9365,1.514,0.05,1111122 
DISL,ioos:station:DISL:MHPA:1,2014-05-02T19:30:00Z,30.6671,-87.9365,1.515,0.05,1111122 
DISL,ioos:station:DISL:MHPA:1,2014-05-02T20:00:00Z,30.6671,-87.9365,1.48,0.05,1111122 
DISL,ioos:station:DISL:MHPA:1,2014-05-02T20:30:00Z,30.6671,-87.9365,1.456,0.05,1111122 
DISL,ioos:station:DISL:MHPA:1,2014-05-02T21:00:00Z,30.6671,-87.9365,1.437,0.05,1111122 
DISL,ioos:station:DISL:MHPA:1,2014-05-02T21:30:00Z,30.6671,-87.9365,1.414,0.05,1111122 
DISL,ioos:station:DISL:MHPA:1,2014-05-02T22:00:00Z,30.6671,-87.9365,1.385,0.05,1111122 
DISL,ioos:station:DISL:MHPA:1,2014-05-02T22:30:00Z,30.6671,-87.9365,1.368,0.05,1111122 
DISL,ioos:station:DISL:MHPA:1,2014-05-02T23:00:00Z,30.6671,-87.9365,1.343,0.05,1111122 
DISL,ioos:station:DISL:MHPA:1,2014-05-02T23:30:00Z,30.6671,-87.9365,1.323,0.05,1111122 
DISL,ioos:station:DISL:MHPA:1,2014-05-03T00:00:00Z,30.6671,-87.9365,1.311,0.05,1111122 
DISL,ioos:station:DISL:MHPA:1,2014-05-03T00:30:00Z,30.6671,-87.9365,1.275,0.05,1111122 
DISL,ioos:station:DISL:MHPA:1,2014-05-03T01:00:00Z,30.6671,-87.9365,1.241,0.05,1111122 
DISL,ioos:station:DISL:MHPA:1,2014-05-03T01:30:00Z,30.6671,-87.9365,1.219,0.05,1111122 
DISL,ioos:station:DISL:MHPA:1,2014-05-03T02:00:00Z,30.6671,-87.9365,1.188,0.05,1111122 
DISL,ioos:station:DISL:MHPA:1,2014-05-03T02:30:00Z,30.6671,-87.9365,1.154,0.05,1111122 
DISL,ioos:station:DISL:MHPA:1,2014-05-03T03:00:00Z,30.6671,-87.9365,1.128,0.05,1111122 
DISL,ioos:station:DISL:MHPA:1,2014-05-03T03:30:00Z,30.6671,-87.9365,1.102,0.05,1111122 
DISL,ioos:station:DISL:MHPA:1,2014-05-03T04:00:00Z,30.6671,-87.9365,1.073,0.05,1111122 
DISL,ioos:station:DISL:MHPA:1,2014-05-03T04:30:00Z,30.6671,-87.9365,1.054,0.05,1111122 
DISL,ioos:station:DISL:MHPA:1,2014-05-03T05:00:00Z,30.6671,-87.9365,1.041,0.05,1111122 
DISL,ioos:station:DISL:MHPA:1,2014-05-03T05:30:00Z,30.6671,-87.9365,1.031,0.05,1111122 
DISL,ioos:station:DISL:MHPA:1,2014-05-03T06:00:00Z,30.6671,-87.9365,1.021,0.05,1111122 
DISL,ioos:station:DISL:MHPA:1,2014-05-03T06:30:00Z,30.6671,-87.9365,1.013,0.05,1111122 
DISL,ioos:station:DISL:MHPA:1,2014-05-03T07:00:00Z,30.6671,-87.9365,1.012,0.05,1111122 
DISL,ioos:station:DISL:MHPA:1,2014-05-03T07:30:00Z,30.6671,-87.9365,1.011,0.05,1111122 
DISL,ioos:station:DISL:MHPA:1,2014-05-03T08:00:00Z,30.6671,-87.9365,1.009,0.05,1111122 
DISL,ioos:station:DISL:MHPA:1,2014-05-03T08:30:00Z,30.6671,-87.9365,1.016,0.05,1111122 
DISL,ioos:station:DISL:MHPA:1,2014-05-03T09:00:00Z,30.6671,-87.9365,1.034,0.05,1111122 
DISL,ioos:station:DISL:MHPA:1,2014-05-03T09:30:00Z,30.6671,-87.9365,1.058,0.05,1111122 
DISL,ioos:station:DISL:MHPA:1,2014-05-03T10:00:00Z,30.6671,-87.9365,1.087,0.05,1111122 
DISL,ioos:station:DISL:MHPA:1,2014-05-03T10:30:00Z,30.6671,-87.9365,1.112,0.05,1111122 
DISL,ioos:station:DISL:MHPA:1,2014-05-03T11:00:00Z,30.6671,-87.9365,1.157,0.05,1111122 
DISL,ioos:station:DISL:MHPA:1,2014-05-03T11:30:00Z,30.6671,-87.9365,1.185,0.05,1111122 
DISL,ioos:station:DISL:MHPA:1,2014-05-03T12:00:00Z,30.6671,-87.9365,1.201,0.05,1111122 
DISL,ioos:station:DISL:MHPA:1,2014-05-03T12:30:00Z,30.6671,-87.9365,1.222,0.05,1111122 
DISL,ioos:station:DISL:MHPA:1,2014-05-03T13:00:00Z,30.6671,-87.9365,1.245,0.05,1111122 
DISL,ioos:station:DISL:MHPA:1,2014-05-03T13:30:00Z,30.6671,-87.9365,1.273,0.05,1111122 
DISL,ioos:station:DISL:MHPA:1,2014-05-03T14:00:00Z,30.6671,-87.9365,1.295,0.05,1111122 
DISL,ioos:station:DISL:MHPA:1,2014-05-03T14:30:00Z,30.6671,-87.9365,1.333,0.05,1111122 
DISL,ioos:station:DISL:MHPA:1,2014-05-03T15:00:00Z,30.6671,-87.9365,1.358,0.05,1111122 
DISL,ioos:station:DISL:MHPA:1,2014-05-03T15:30:00Z,30.6671,-87.9365,1.387,0.05,1111122 
DISL,ioos:station:DISL:MHPA:1,2014-05-03T16:00:00Z,30.6671,-87.9365,1.404,0.05,1111122 
DISL,ioos:station:DISL:MHPA:1,2014-05-03T16:30:00Z,30.6671,-87.9365,1.432,0.05,1111122 
DISL,ioos:station:DISL:MHPA:1,2014-05-03T17:00:00Z,30.6671,-87.9365,1.459,0.05,1111122 
DISL,ioos:station:DISL:MHPA:1,2014-05-03T17:30:00Z,30.6671,-87.9365,1.466,0.05,1111122 
DISL,ioos:station:DISL:MHPA:1,2014-05-03T18:00:00Z,30.6671,-87.9365,1.475,0.05,1111122 
DISL,ioos:station:DISL:MHPA:1,2014-05-03T18:30:00Z,30.6671,-87.9365,1.474,0.05,1111122 
DISL,ioos:station:DISL:MHPA:1,2014-05-03T19:00:00Z,30.6671,-87.9365,1.483,0.05,1111122 
DISL,ioos:station:DISL:MHPA:1,2014-05-03T19:30:00Z,30.6671,-87.9365,1.473,0.05,1111122 
DISL,ioos:station:DISL:MHPA:1,2014-05-03T20:00:00Z,30.6671,-87.9365,1.466,0.05,1111122 
DISL,ioos:station:DISL:MHPA:1,2014-05-03T20:30:00Z,30.6671,-87.9365,1.468,0.05,1111122 
DISL,ioos:station:DISL:MHPA:1,2014-05-03T21:00:00Z,30.6671,-87.9365,1.482,0.05,1111122 
DISL,ioos:station:DISL:MHPA:1,2014-05-03T21:30:00Z,30.6671,-87.9365,1.461,0.05,1111122 
DISL,ioos:station:DISL:MHPA:1,2014-05-03T22:00:00Z,30.6671,-87.9365,1.443,0.05,1111122 
DISL,ioos:station:DISL:MHPA:1,2014-05-03T22:30:00Z,30.6671,-87.9365,1.425,0.05,1111122 
DISL,ioos:station:DISL:MHPA:1,2014-05-03T23:00:00Z,30.6671,-87.9365,1.407,0.05,1111122 
DISL,ioos:station:DISL:MHPA:1,2014-05-03T23:30:00Z,30.6671,-87.9365,1.377,0.05,1111122 
DISL,ioos:station:DISL:MHPA:1,2014-05-04T00:00:00Z,30.6671,-87.9365,1.345,0.05,1111122 
DISL,ioos:station:DISL:MHPA:1,2014-05-04T00:30:00Z,30.6671,-87.9365,1.313,0.05,1111122 
DISL,ioos:station:DISL:MHPA:1,2014-05-04T01:00:00Z,30.6671,-87.9365,1.279,0.05,1111122 
DISL,ioos:station:DISL:MHPA:1,2014-05-04T01:30:00Z,30.6671,-87.9365,1.239,0.05,1111122 
DISL,ioos:station:DISL:MHPA:1,2014-05-04T02:00:00Z,30.6671,-87.9365,1.207,0.05,1111122 
DISL,ioos:station:DISL:MHPA:1,2014-05-04T02:30:00Z,30.6671,-87.9365,1.178,0.05,1111122 
DISL,ioos:station:DISL:MHPA:1,2014-05-04T03:00:00Z,30.6671,-87.9365,1.149,0.05,1111122 
DISL,ioos:station:DISL:MHPA:1,2014-05-04T03:30:00Z,30.6671,-87.9365,1.123,0.05,1111122 
DISL,ioos:station:DISL:MHPA:1,2014-05-04T04:00:00Z,30.6671,-87.9365,1.103,0.05,1111122 
DISL,ioos:station:DISL:MHPA:1,2014-05-04T04:30:00Z,30.6671,-87.9365,1.086,0.05,1111122 
DISL,ioos:station:DISL:MHPA:1,2014-05-04T05:00:00Z,30.6671,-87.9365,1.068,0.05,1111122 
DISL,ioos:station:DISL:MHPA:1,2014-05-04T05:30:00Z,30.6671,-87.9365,1.049,0.05,1111122 
DISL,ioos:station:DISL:MHPA:1,2014-05-04T06:00:00Z,30.6671,-87.9365,1.034,0.05,1111122 
DISL,ioos:station:DISL:MHPA:1,2014-05-04T06:30:00Z,30.6671,-87.9365,1.022,0.05,1111122 
DISL,ioos:station:DISL:MHPA:1,2014-05-04T07:00:00Z,30.6671,-87.9365,1.006,0.05,1111122 
DISL,ioos:station:DISL:MHPA:1,2014-05-04T07:30:00Z,30.6671,-87.9365,0.992,0.05,1111122 
DISL,ioos:station:DISL:MHPA:1,2014-05-04T08:00:00Z,30.6671,-87.9365,0.982,0.05,1111122 
DISL,ioos:station:DISL:MHPA:1,2014-05-04T08:30:00Z,30.6671,-87.9365,0.976,0.05,1111122 
DISL,ioos:station:DISL:MHPA:1,2014-05-04T09:00:00Z,30.6671,-87.9365,0.974,0.05,1111122 
DISL,ioos:station:DISL:MHPA:1,2014-05-04T09:30:00Z,30.6671,-87.9365,0.976,0.05,1111122 
DISL,ioos:station:DISL:MHPA:1,2014-05-04T10:00:00Z,30.6671,-87.9365,0.982,0.05,1111122 
DISL,ioos:station:DISL:MHPA:1,2014-05-04T10:30:00Z,30.6671,-87.9365,0.988,0.05,1111122 
DISL,ioos:station:DISL:MHPA:1,2014-05-04T11:00:00Z,30.6671,-87.9365,0.993,0.05,1111122 
DISL,ioos:station:DISL:MHPA:1,2014-05-04T11:30:00Z,30.6671,-87.9365,1.005,0.05,1111122 
DISL,ioos:station:DISL:MHPA:1,2014-05-04T12:00:00Z,30.6671,-87.9365,1.022,0.05,1111122 
DISL,ioos:station:DISL:MHPA:1,2014-05-04T12:30:00Z,30.6671,-87.9365,1.046,0.05,1111122 
DISL,ioos:station:DISL:MHPA:1,2014-05-04T13:00:00Z,30.6671,-87.9365,1.085,0.05,1111122 
DISL,ioos:station:DISL:MHPA:1,2014-05-04T13:30:00Z,30.6671,-87.9365,1.116,0.05,1111122 
DISL,ioos:station:DISL:MHPA:1,2014-05-04T14:00:00Z,30.6671,-87.9365,1.134,0.05,1111122 
DISL,ioos:station:DISL:MHPA:1,2014-05-04T14:30:00Z,30.6671,-87.9365,1.147,0.05,1111122 
DISL,ioos:station:DISL:MHPA:1,2014-05-04T15:00:00Z,30.6671,-87.9365,1.177,0.05,1111122 
DISL,ioos:station:DISL:MHPA:1,2014-05-04T15:30:00Z,30.6671,-87.9365,1.207,0.05,1111122 
DISL,ioos:station:DISL:MHPA:1,2014-05-04T16:00:00Z,30.6671,-87.9365,1.232,0.05,1111122 
DISL,ioos:station:DISL:MHPA:1,2014-05-04T16:30:00Z,30.6671,-87.9365,1.257,0.05,1111122 
DISL,ioos:station:DISL:MHPA:1,2014-05-04T17:00:00Z,30.6671,-87.9365,1.276,0.05,1111122 
DISL,ioos:station:DISL:MHPA:1,2014-05-04T17:30:00Z,30.6671,-87.9365,1.306,0.05,1111122 
DISL,ioos:station:DISL:MHPA:1,2014-05-04T18:00:00Z,30.6671,-87.9365,1.336,0.05,1111122 
DISL,ioos:station:DISL:MHPA:1,2014-05-04T18:30:00Z,30.6671,-87.9365,1.369,0.05,1111122 
DISL,ioos:station:DISL:MHPA:1,2014-05-04T19:00:00Z,30.6671,-87.9365,1.368,0.05,1111122 
DISL,ioos:station:DISL:MHPA:1,2014-05-04T19:30:00Z,30.6671,-87.9365,1.374,0.05,1111122 
DISL,ioos:station:DISL:MHPA:1,2014-05-04T20:00:00Z,30.6671,-87.9365,1.389,0.05,1111122 
DISL,ioos:station:DISL:MHPA:1,2014-05-04T20:30:00Z,30.6671,-87.9365,1.408,0.05,1111122 
DISL,ioos:station:DISL:MHPA:1,2014-05-04T21:00:00Z,30.6671,-87.9365,1.411,0.05,1111122 
DISL,ioos:station:DISL:MHPA:1,2014-05-04T21:30:00Z,30.6671,-87.9365,1.393,0.05,1111122 
DISL,ioos:station:DISL:MHPA:1,2014-05-04T22:00:00Z,30.6671,-87.9365,1.372,0.05,1111122 
DISL,ioos:station:DISL:MHPA:1,2014-05-04T22:30:00Z,30.6671,-87.9365,1.361,0.06,1111122 
DISL,ioos:station:DISL:MHPA:1,2014-05-04T23:00:00Z,30.6671,-87.9365,1.334,0.06,1111122 
DISL,ioos:station:DISL:MHPA:1,2014-05-04T23:30:00Z,30.6671,-87.9365,1.31,0.05,1111122 
DISL,ioos:station:DISL:MHPA:1,2014-05-05T00:00:00Z,30.6671,-87.9365,1.283,0.06,1111122 
DISL,ioos:station:DISL:MHPA:1,2014-05-05T00:30:00Z,30.6671,-87.9365,1.251,0.06,1111122 
DISL,ioos:station:DISL:MHPA:1,2014-05-05T01:00:00Z,30.6671,-87.9365,1.222,0.06,1111122 
DISL,ioos:station:DISL:MHPA:1,2014-05-05T01:30:00Z,30.6671,-87.9365,1.194,0.06,1111122 
DISL,ioos:station:DISL:MHPA:1,2014-05-05T02:00:00Z,30.6671,-87.9365,1.167,0.06,1111122 
DISL,ioos:station:DISL:MHPA:1,2014-05-05T02:30:00Z,30.6671,-87.9365,1.143,0.06,1111122 
DISL,ioos:station:DISL:MHPA:1,2014-05-05T03:00:00Z,30.6671,-87.9365,1.12,0.06,1111122 
DISL,ioos:station:DISL:MHPA:1,2014-05-05T03:30:00Z,30.6671,-87.9365,1.102,0.06,1111122 
DISL,ioos:station:DISL:MHPA:1,2014-05-05T04:00:00Z,30.6671,-87.9365,1.084,0.06,1111122 
DISL,ioos:station:DISL:MHPA:1,2014-05-05T04:30:00Z,30.6671,-87.9365,1.068,0.06,1111122 
DISL,ioos:station:DISL:MHPA:1,2014-05-05T05:00:00Z,30.6671,-87.9365,1.052,0.06,1111122 
DISL,ioos:station:DISL:MHPA:1,2014-05-05T05:30:00Z,30.6671,-87.9365,1.033,0.06,1111122 
DISL,ioos:station:DISL:MHPA:1,2014-05-05T06:00:00Z,30.6671,-87.9365,1.016,0.06,1111122 
DISL,ioos:station:DISL:MHPA:1,2014-05-05T06:30:00Z,30.6671,-87.9365,1.003,0.06,1111122 
DISL,ioos:station:DISL:MHPA:1,2014-05-05T07:00:00Z,30.6671,-87.9365,0.993,0.06,1111122 
DISL,ioos:station:DISL:MHPA:1,2014-05-05T07:30:00Z,30.6671,-87.9365,0.984,0.06,1111122 
DISL,ioos:station:DISL:MHPA:1,2014-05-05T08:00:00Z,30.6671,-87.9365,0.978,0.06,1111122 
DISL,ioos:station:DISL:MHPA:1,2014-05-05T08:30:00Z,30.6671,-87.9365,0.974,0.06,1111122 
DISL,ioos:station:DISL:MHPA:1,2014-05-05T09:00:00Z,30.6671,-87.9365,0.97,0.06,1111122 
DISL,ioos:station:DISL:MHPA:1,2014-05-05T09:30:00Z,30.6671,-87.9365,0.971,0.06,1111122 
DISL,ioos:station:DISL:MHPA:1,2014-05-05T10:00:00Z,30.6671,-87.9365,0.973,0.06,1111122 
DISL,ioos:station:DISL:MHPA:1,2014-05-05T10:30:00Z,30.6671,-87.9365,0.977,0.06,1111122 
DISL,ioos:station:DISL:MHPA:1,2014-05-05T11:00:00Z,30.6671,-87.9365,0.986,0.06,1111122 
DISL,ioos:station:DISL:MHPA:1,2014-05-05T11:30:00Z,30.6671,-87.9365,0.998,0.06,1111122 
DISL,ioos:station:DISL:MHPA:1,2014-05-05T12:00:00Z,30.6671,-87.9365,1.015,0.06,1111122 
DISL,ioos:station:DISL:MHPA:1,2014-05-05T12:30:00Z,30.6671,-87.9365,1.037,0.06,1111122 
DISL,ioos:station:DISL:MHPA:1,2014-05-05T13:00:00Z,30.6671,-87.9365,1.061,0.06,1111122 
DISL,ioos:station:DISL:MHPA:1,2014-05-05T13:30:00Z,30.6671,-87.9365,1.083,0.06,1111122 
DISL,ioos:station:DISL:MHPA:1,2014-05-05T14:00:00Z,30.6671,-87.9365,1.117,0.06,1111122 
DISL,ioos:station:DISL:MHPA:1,2014-05-05T14:30:00Z,30.6671,-87.9365,1.144,0.06,1111122 
DISL,ioos:station:DISL:MHPA:1,2014-05-05T15:00:00Z,30.6671,-87.9365,1.168,0.06,1111122 
DISL,ioos:station:DISL:MHPA:1,2014-05-05T15:30:00Z,30.6671,-87.9365,1.196,0.06,1111122 
DISL,ioos:station:DISL:MHPA:1,2014-05-05T16:00:00Z,30.6671,-87.9365,1.224,0.06,1111122 
DISL,ioos:station:DISL:MHPA:1,2014-05-05T16:30:00Z,30.6671,-87.9365,1.244,0.06,1111122 
DISL,ioos:station:DISL:MHPA:1,2014-05-05T17:00:00Z,30.6671,-87.9365,1.264,0.06,1111122 
DISL,ioos:station:DISL:MHPA:1,2014-05-05T17:30:00Z,30.6671,-87.9365,1.279,0.06,1111122 
DISL,ioos:station:DISL:MHPA:1,2014-05-05T18:00:00Z,30.6671,-87.9365,1.296,0.06,1111122 
DISL,ioos:station:DISL:MHPA:1,2014-05-05T18:30:00Z,30.6671,-87.9365,1.312,0.06,1111122 
DISL,ioos:station:DISL:MHPA:1,2014-05-05T19:00:00Z,30.6671,-87.9365,1.343,0.06,1111122 
DISL,ioos:station:DISL:MHPA:1,2014-05-05T19:30:00Z,30.6671,-87.9365,1.37,0.06,1111122 
DISL,ioos:station:DISL:MHPA:1,2014-05-05T20:00:00Z,30.6671,-87.9365,1.371,0.06,1111122 
DISL,ioos:station:DISL:MHPA:1,2014-05-05T20:30:00Z,30.6671,-87.9365,1.385,0.06,1111122 
DISL,ioos:station:DISL:MHPA:1,2014-05-05T21:00:00Z,30.6671,-87.9365,1.387,0.06,1111122 
DISL,ioos:station:DISL:MHPA:1,2014-05-05T21:30:00Z,30.6671,-87.9365,1.383,0.06,1111122 
DISL,ioos:station:DISL:MHPA:1,2014-05-05T22:00:00Z,30.6671,-87.9365,1.377,0.06,1111122 
DISL,ioos:station:DISL:MHPA:1,2014-05-05T22:30:00Z,30.6671,-87.9365,1.357,0.06,1111122 
DISL,ioos:station:DISL:MHPA:1,2014-05-05T23:00:00Z,30.6671,-87.9365,1.337,0.06,1111122 
DISL,ioos:station:DISL:MHPA:1,2014-05-05T23:30:00Z,30.6671,-87.9365,1.318,0.06,1111122 
DISL,ioos:station:DISL:MHPA:1,2014-05-06T00:00:00Z,30.6671,-87.9365,1.298,0.06,1111122 
DISL,ioos:station:DISL:MHPA:1,2014-05-06T00:30:00Z,30.6671,-87.9365,1.284,0.06,1111122 
DISL,ioos:station:DISL:MHPA:1,2014-05-06T01:00:00Z,30.6671,-87.9365,1.265,0.06,1111122 
DISL,ioos:station:DISL:MHPA:1,2014-05-06T01:30:00Z,30.6671,-87.9365,1.241,0.06,1111122 
DISL,ioos:station:DISL:MHPA:1,2014-05-06T02:00:00Z,30.6671,-87.9365,1.222,0.06,1111122 
DISL,ioos:station:DISL:MHPA:1,2014-05-06T02:30:00Z,30.6671,-87.9365,1.203,0.06,1111122 
DISL,ioos:station:DISL:MHPA:1,2014-05-06T03:00:00Z,30.6671,-87.9365,1.179,0.06,1111122 
DISL,ioos:station:DISL:MHPA:1,2014-05-06T03:30:00Z,30.6671,-87.9365,1.156,0.06,1111122 
DISL,ioos:station:DISL:MHPA:1,2014-05-06T04:00:00Z,30.6671,-87.9365,1.136,0.06,1111122 
DISL,ioos:station:DISL:MHPA:1,2014-05-06T04:30:00Z,30.6671,-87.9365,1.12,0.06,1111122 
DISL,ioos:station:DISL:MHPA:1,2014-05-06T05:00:00Z,30.6671,-87.9365,1.102,0.06,1111122 
DISL,ioos:station:DISL:MHPA:1,2014-05-06T05:30:00Z,30.6671,-87.9365,1.087,0.06,1111122 
DISL,ioos:station:DISL:MHPA:1,2014-05-06T06:00:00Z,30.6671,-87.9365,1.077,0.06,1111122 
DISL,ioos:station:DISL:MHPA:1,2014-05-06T06:30:00Z,30.6671,-87.9365,1.07,0.06,1111122 
DISL,ioos:station:DISL:MHPA:1,2014-05-06T07:00:00Z,30.6671,-87.9365,1.065,0.06,1111122 
DISL,ioos:station:DISL:MHPA:1,2014-05-06T07:30:00Z,30.6671,-87.9365,1.065,0.06,1111122 
DISL,ioos:station:DISL:MHPA:1,2014-05-06T08:00:00Z,30.6671,-87.9365,1.063,0.06,1111122 
DISL,ioos:station:DISL:MHPA:1,2014-05-06T08:30:00Z,30.6671,-87.9365,1.064,0.06,1111122 
DISL,ioos:station:DISL:MHPA:1,2014-05-06T09:00:00Z,30.6671,-87.9365,1.069,0.06,1111122 
DISL,ioos:station:DISL:MHPA:1,2014-05-06T09:30:00Z,30.6671,-87.9365,1.076,0.06,1111122 
DISL,ioos:station:DISL:MHPA:1,2014-05-06T10:00:00Z,30.6671,-87.9365,1.081,0.06,1111122 
DISL,ioos:station:DISL:MHPA:1,2014-05-06T10:30:00Z,30.6671,-87.9365,1.09,0.06,1111122 
DISL,ioos:station:DISL:MHPA:1,2014-05-06T11:00:00Z,30.6671,-87.9365,1.106,0.06,1111122 
DISL,ioos:station:DISL:MHPA:1,2014-05-06T11:30:00Z,30.6671,-87.9365,1.117,0.06,1111122 
DISL,ioos:station:DISL:MHPA:1,2014-05-06T12:00:00Z,30.6671,-87.9365,1.128,0.06,1111122 
DISL,ioos:station:DISL:MHPA:1,2014-05-06T12:30:00Z,30.6671,-87.9365,1.149,0.06,1111122 
DISL,ioos:station:DISL:MHPA:1,2014-05-06T13:00:00Z,30.6671,-87.9365,1.173,0.06,1111122 
DISL,ioos:station:DISL:MHPA:1,2014-05-06T13:30:00Z,30.6671,-87.9365,1.19,0.06,1111122 
DISL,ioos:station:DISL:MHPA:1,2014-05-06T14:00:00Z,30.6671,-87.9365,1.205,0.06,1111122 
DISL,ioos:station:DISL:MHPA:1,2014-05-06T14:30:00Z,30.6671,-87.9365,1.22,0.06,1111122 
DISL,ioos:station:DISL:MHPA:1,2014-05-06T15:00:00Z,30.6671,-87.9365,1.24,0.06,1111122 